Weather History for KLUK - July, 2013

Change the Weather History Date:

Saturday, July 27, 2013

  Actual Average Record
Temperature  
Mean Temperature 68 °F -  
Max Temperature 75 °F 86 °F 98 °F (1997)
Min Temperature 63 °F 67 °F 48 °F (1962)
Cooling Degree Days 3    
Growing Degree Days 18 (Base 50)    
Moisture  
Dew Point 64 °F    
Average Humidity 86    
Maximum Humidity 100    
Minimum Humidity 61    
Precipitation  
Precipitation 0.13 in - - ()
Sea Level Pressure  
Sea Level Pressure 29.92 in    
Wind  
Wind Speed 3 mph (SW)    
Max Wind Speed 13 mph    
Max Gust Speed 21 mph    
Visibility 7 miles    
Events Rain    
Averages and records for this station are not official NWS values.
T = Trace of Precipitation, MM = Missing Value Source: NWS Daily Summary

Daily Weather History Graph

Daily Weather History Graph

Search for Another Location

Airport or City:

Trip Planner

Search our weather history database for the weather conditions in past years. The results will help you decide how hot, cold, wet, or windy it might be!

Date:

Astronomy

Jul. 27, 2013 Rise Set
Actual Time 6:33 AM EDT 8:53 PM EDT
Civil Twilight 6:03 AM EDT 9:24 PM EDT
Nautical Twilight 5:26 AM EDT 10:01 PM EDT
Astronomical Twilight 4:45 AM EDT 10:42 PM EDT
Moon 11:44 PM EDT (7/27) 12:10 PM EDT (7/27)
Length of Visible Light 15h 20m
Length of Day
14h 19m
Waning Gibbous, 71% of the Moon is Illuminated
Jul 27
Waning Gibbous
Jul 29
Last Quarter
Aug 6
New
Aug 14
First Quarter
Aug 20
Full

Hourly Weather History & Observations

Time (EDT) Temp. Dew Point Humidity Pressure Visibility Wind Dir Wind Speed Gust Speed Precip Events Conditions
12:53 AM 66.9 °F 64.0 °F 90% 29.97 in 10.0 mi Calm Calm - N/A   Clear
1:53 AM 66.9 °F 64.0 °F 90% 29.96 in 10.0 mi Calm Calm - N/A   Partly Cloudy
2:53 AM 66.0 °F 64.9 °F 96% 29.96 in 7.0 mi Calm Calm - 0.00 in Rain Light Rain
3:53 AM 66.9 °F 66.0 °F 97% 29.94 in 6.0 mi Calm Calm - 0.01 in Rain Light Rain
4:53 AM 68.0 °F 62.1 °F 81% 29.94 in 10.0 mi Calm Calm - 0.00 in Rain Light Rain
5:53 AM 64.9 °F 64.9 °F 100% 29.93 in 4.0 mi Calm Calm - 0.00 in   Mostly Cloudy
6:53 AM 64.9 °F 64.0 °F 97% 29.94 in 5.0 mi Calm Calm - 0.00 in Rain Light Rain
7:17 AM 64.4 °F 64.4 °F 100% 29.95 in 1.8 mi Calm Calm - 0.02 in Rain Rain
7:28 AM 64.4 °F 64.4 °F 100% 29.95 in 3.0 mi Calm Calm - 0.02 in Rain Light Rain
7:53 AM 66.0 °F 63.0 °F 90% 29.94 in 3.0 mi WNW 4.6 mph - 0.02 in Rain Rain
8:53 AM 66.0 °F 64.0 °F 93% 29.94 in 3.0 mi Calm Calm - 0.02 in Rain Light Rain
9:53 AM 66.0 °F 64.0 °F 93% 29.94 in 3.0 mi SSW 4.6 mph - 0.05 in   Overcast
10:01 AM 66.2 °F 64.4 °F 94% 29.95 in 6.0 mi South 4.6 mph - N/A   Overcast
10:53 AM 66.9 °F 64.9 °F 93% 29.94 in 7.0 mi SSW 8.1 mph - N/A   Overcast
11:18 AM 66.2 °F 66.2 °F 100% 29.94 in 3.0 mi SSW 8.1 mph - 0.00 in Rain Light Rain
11:45 AM 68.0 °F 66.2 °F 94% 29.93 in 3.0 mi SSW 8.1 mph - 0.00 in Rain Light Rain
11:53 AM 68.0 °F 66.0 °F 93% 29.93 in 3.0 mi SSW 11.5 mph - 0.00 in Rain Light Rain
12:53 PM 69.1 °F 66.0 °F 90% 29.92 in 10.0 mi SW 9.2 mph - 0.00 in   Overcast
1:53 PM 72.0 °F 66.9 °F 84% 29.91 in 10.0 mi WSW 6.9 mph - N/A   Mostly Cloudy
2:27 PM 73.4 °F 66.2 °F 78% 29.91 in 10.0 mi SW 12.7 mph 20.7 mph N/A   Mostly Cloudy
2:53 PM 73.0 °F 64.9 °F 76% 29.89 in 10.0 mi SW 10.4 mph - N/A   Mostly Cloudy
3:53 PM 73.9 °F 64.0 °F 71% 29.88 in 10.0 mi WSW 9.2 mph - N/A   Overcast
4:53 PM 73.9 °F 64.9 °F 73% 29.86 in 10.0 mi South 10.4 mph - N/A   Overcast
5:53 PM 72.0 °F 64.0 °F 76% 29.86 in 6.0 mi WNW 12.7 mph 18.4 mph 0.01 in Rain Light Rain
6:53 PM 73.9 °F 63.0 °F 68% 29.86 in 10.0 mi SW 10.4 mph - 0.02 in   Mostly Cloudy
7:53 PM 73.0 °F 59.0 °F 61% 29.86 in 10.0 mi WSW 8.1 mph - N/A   Clear
8:53 PM 70.0 °F 57.9 °F 65% 29.88 in 10.0 mi WSW 4.6 mph - N/A   Clear
9:53 PM 63.0 °F 61.0 °F 93% 29.89 in 10.0 mi Calm Calm - N/A   Clear
10:53 PM 63.0 °F 59.0 °F 87% 29.91 in 10.0 mi Calm Calm - N/A   Clear
11:53 PM 66.9 °F 55.9 °F 68% 29.92 in 10.0 mi WNW 4.6 mph - N/A   Mostly Cloudy